DW5785 Weather Reports


Display with metric or nautical units.
time (UTC)temp
F
wind
direction
speed
MPH
gust
MPH
rain 1hr
in
rain 24hr
in
rain mn
in
humidity
%
barometer
mb
20210119015034 35 272 0.0 0.0 0.00 0.03 0.00 90 1018.8
20210119014533 34 229 0.0 0.0 0.00 0.03 0.00 89 1018.8
20210119014031 34 256 0.0 0.0 0.00 0.03 0.00 90 1018.8
20210119013531 34 264 0.0 0.0 0.00 0.03 0.00 90 1018.9
20210119013041 34 270 0.0 0.0 0.00 0.03 0.00 90 1019.0
20210119012536 34 264 0.0 0.0 0.00 0.03 0.00 90 1019.0
20210119012037 34 221 0.0 0.0 0.00 0.03 0.00 90 1019.0
20210119011532 34 270 0.0 0.0 0.00 0.03 0.00 89 1019.1
20210119011029 34 268 0.0 0.0 0.00 0.03 0.00 89 1019.1
20210119010532 34 261 0.0 0.0 0.00 0.03 0.00 89 1019.1
20210119010032 34 247 0.0 0.0 0.00 0.03 0.00 90 1019.1
20210119005536 34 255 0.0 0.0 0.00 0.03 0.00 90 1019.1
20210119005039 34 231 0.0 0.0 0.00 0.03 0.00 90 1019.1
20210119004538 34 239 0.0 0.0 0.00 0.03 0.00 90 1019.2
20210119004048 34 272 0.0 0.0 0.00 0.03 0.00 90 1019.1
20210119003531 34 240 0.0 0.0 0.00 0.03 0.00 90 1019.1
20210119003049 34 243 0.0 0.0 0.00 0.03 0.00 89 1019.3
20210119002539 34 247 0.0 0.0 0.00 0.03 0.00 89 1019.3
20210119002031 34 253 0.0 0.0 0.00 0.03 0.00 89 1019.2
20210119001533 35 260 0.0 0.0 0.00 0.03 0.00 89 1019.3
20210119001032 35 253 0.0 0.0 0.00 0.03 0.00 89 1019.3
20210119000546 35 246 0.0 0.0 0.00 0.03 0.00 89 1019.4
20210119000042 35 271 0.0 0.0 0.00 0.03 0.00 89 1019.3
20210118235536 35 270 0.0 0.0 0.00 0.03 0.00 89 1019.4
20210118235040 34 234 0.0 0.0 0.00 0.03 0.00 89 1019.3
20210118234531 34 239 0.0 0.0 0.00 0.03 0.00 89 1019.4
20210118234030 34 241 0.0 0.0 0.00 0.03 0.00 90 1019.4
20210118233531 34 231 0.0 0.0 0.00 0.03 0.00 90 1019.4
20210118233034 34 287 0.0 0.0 0.00 0.03 0.00 91 1019.5
20210118232537 34 264 0.0 0.0 0.00 0.03 0.00 91 1019.5
20210118232046 34 233 0.0 0.0 0.00 0.03 0.00 91 1019.6
20210118231537 34 249 0.0 0.0 0.00 0.03 0.00 92 1019.6
20210118231034 34 264 0.0 0.0 0.00 0.03 0.00 92 1019.6
20210118230531 34 244 0.0 0.0 0.00 0.03 0.00 92 1019.7
20210118230054 34 254 0.0 0.0 0.00 0.03 0.00 92 1019.7
20210118225533 34 260 0.0 0.0 0.00 0.03 0.00 92 1019.8
20210118225034 34 235 0.0 0.0 0.00 0.03 0.00 92 1019.8
20210118224531 34 247 0.0 0.0 0.00 0.03 0.00 92 1019.9
20210118224032 34 231 0.0 0.0 0.00 0.03 0.00 92 1019.9
20210118223529 34 238 0.0 0.0 0.00 0.03 0.00 92 1020.0
20210118223030 34 311 0.0 0.0 0.00 0.03 0.00 91 1020.0
20210118222531 34 241 0.0 0.0 0.00 0.03 0.00 91 1020.0
20210118222037 34 205 0.0 0.0 0.00 0.03 0.00 91 1020.1
20210118221550 34 241 0.0 0.0 0.00 0.03 0.00 91 1020.0
20210118221037 34 262 0.0 0.0 0.00 0.03 0.00 91 1020.0
20210118220532 34 265 0.0 0.0 0.00 0.03 0.00 92 1020.1
20210118220034 34 253 0.0 0.0 0.00 0.03 0.00 92 1020.1
20210118215536 34 263 0.0 0.0 0.00 0.03 0.00 92 1020.1
20210118215030 34 264 0.0 0.0 0.00 0.03 0.00 92 1020.1
20210118214529 34 270 0.0 0.0 0.00 0.03 0.00 92 1020.2
20210118214030 34 243 0.0 0.0 0.00 0.03 0.00 92 1020.2
20210118213529 34 232 0.0 0.0 0.00 0.03 0.00 92 1020.2
20210118213031 34 248 0.0 0.0 0.00 0.03 0.00 93 1020.3
20210118212531 34 260 0.0 0.0 0.00 0.03 0.00 93 1020.3
20210118212037 34 272 0.0 0.0 0.00 0.03 0.00 93 1020.3
20210118211530 34 239 0.0 0.0 0.00 0.03 0.00 93 1020.4
20210118211029 34 236 0.0 0.0 0.00 0.03 0.00 93 1020.3
20210118210534 34 251 0.0 0.0 0.00 0.03 0.00 94 1020.4
20210118210035 34 239 0.0 0.0 0.00 0.03 0.00 94 1020.3
20210118205541 34 277 0.0 0.0 0.00 0.03 0.00 94 1020.4
20210118205035 33 226 0.0 0.0 0.00 0.03 0.00 94 1020.4
20210118204533 33 252 0.0 0.0 0.00 0.03 0.00 94 1020.3
20210118204038 33 270 0.0 0.0 0.00 0.03 0.00 94 1020.4
20210118203529 33 247 0.0 0.0 0.00 0.03 0.00 94 1020.3
20210118203039 33 255 0.0 0.0 0.00 0.03 0.00 94 1020.4
20210118202545 33 237 0.0 0.0 0.00 0.03 0.00 94 1020.4
20210118202037 33 246 0.0 0.0 0.00 0.03 0.00 94 1020.4
20210118201530 33 237 0.0 0.0 0.00 0.03 0.00 94 1020.5
20210118201032 33 233 0.0 0.0 0.00 0.03 0.00 94 1020.5
20210118200529 33 251 0.0 0.0 0.00 0.02 0.00 94 1020.4
20210118200044 33 239 0.0 0.0 0.00 0.02 0.00 93 1020.5
20210118195537 33 264 0.0 0.0 0.00 0.02 0.00 93 1020.5
20210118195030 33 277 0.0 0.0 0.00 0.02 0.00 93 1020.5
20210118194532 33 249 0.0 0.0 0.00 0.02 0.00 93 1020.5
20210118194031 33 243 0.0 0.0 0.00 0.02 0.00 92 1020.5
20210118193531 33 255 0.0 0.0 0.00 0.02 0.00 92 1020.5
20210118193033 34 253 0.0 0.0 0.00 0.02 0.00 92 1020.5
20210118192534 34 259 0.0 0.0 0.00 0.02 0.00 92 1020.4
20210118192032 34 224 0.0 0.0 0.00 0.02 0.00 91 1020.5
20210118191529 34 262 0.0 0.0 0.00 0.02 0.00 91 1020.4
20210118191030 34 240 0.0 0.0 0.00 0.02 0.00 90 1020.5
20210118190536 34 249 0.0 0.0 0.00 0.02 0.00 90 1020.5
20210118190039 34 246 0.0 0.0 0.00 0.02 0.00 89 1020.5
20210118185529 34 264 0.0 0.0 0.00 0.02 0.00 89 1020.5
20210118185035 34 245 0.0 0.0 0.00 0.02 0.00 89 1020.5
20210118184536 34 287 0.0 0.0 0.00 0.02 0.00 88 1020.5
20210118184029 35 249 0.0 0.0 0.00 0.02 0.00 87 1020.5
20210118183532 35 186 0.0 0.0 0.00 0.02 0.00 86 1020.5
20210118183034 35 266 0.0 0.0 0.00 0.02 0.00 84 1020.5
20210118182530 35 227 0.0 0.0 0.00 0.02 0.00 84 1020.4
20210118182037 35 258 0.0 0.0 0.00 0.02 0.00 84 1020.4
20210118181532 35 277 0.0 0.0 0.00 0.02 0.00 84 1020.4
20210118181029 35 241 0.0 0.0 0.00 0.02 0.00 84 1020.3
20210118180529 35 248 0.0 0.0 0.00 0.02 0.00 83 1020.4
20210118180106 35 211 0.0 0.0 0.00 0.02 0.00 83 1020.4
20210118175529 35 250 0.0 0.0 0.00 0.02 0.00 83 1020.4
20210118175029 35 277 0.0 0.0 0.00 0.02 0.00 82 1020.3
20210118174531 35 261 0.0 0.0 0.00 0.02 0.00 82 1020.3
20210118174037 36 246 0.0 0.0 0.00 0.02 0.00 82 1020.3
20210118173531 36 246 0.0 0.0 0.00 0.02 0.00 82 1020.3
20210118173052 36 272 0.0 0.0 0.00 0.02 0.00 81 1020.3
20210118172533 36 260 0.0 0.0 0.00 0.02 0.00 81 1020.4
20210118172031 36 245 0.0 0.0 0.00 0.02 0.00 82 1020.4
20210118171540 36 234 0.0 0.0 0.00 0.02 0.00 82 1020.4
20210118171039 36 277 0.0 0.0 0.00 0.02 0.00 82 1020.4
20210118170543 36 255 0.0 0.0 0.00 0.02 0.00 82 1020.3
20210118170039 36 251 0.0 0.0 0.00 0.02 0.00 82 1020.4
20210118165529 36 258 0.0 0.0 0.00 0.02 0.00 82 1020.4
20210118165031 36 226 0.0 0.0 0.00 0.02 0.00 82 1020.4
20210118164529 36 277 0.0 0.0 0.00 0.02 0.00 82 1020.4
20210118164035 36 287 0.0 0.0 0.00 0.02 0.00 82 1020.3
20210118163535 36 255 0.0 0.0 0.00 0.02 0.00 82 1020.3
20210118163049 36 243 0.0 0.0 0.00 0.02 0.00 82 1020.3
20210118162540 36 239 0.0 0.0 0.00 0.02 0.00 82 1020.3
20210118162031 36 282 0.0 0.0 0.00 0.02 0.00 82 1020.3
20210118161543 36 223 0.0 0.0 0.00 0.02 0.00 82 1020.4
20210118161030 36 245 0.0 0.0 0.00 0.02 0.00 82 1020.4
20210118160532 36 261 0.0 0.0 0.00 0.02 0.00 82 1020.4
20210118160037 36 266 0.0 0.0 0.00 0.02 0.00 82 1020.4
20210118155529 36 245 0.0 0.0 0.00 0.02 0.00 82 1020.5
20210118155042 36 271 0.0 0.0 0.00 0.02 0.00 82 1020.4
20210118154537 36 229 0.0 0.0 0.00 0.02 0.00 82 1020.4
20210118154034 36 338 0.0 0.0 0.00 0.02 0.00 82 1020.4
20210118153540 36 272 0.0 0.0 0.00 0.02 0.00 82 1020.4
20210118153054 36 321 0.0 0.0 0.00 0.02 0.00 82 1020.4
20210118152532 36 264 0.0 0.0 0.00 0.02 0.00 82 1020.4
20210118152035 36 337 0.0 0.0 0.00 0.02 0.00 82 1020.4
20210118151532 36 277 0.0 0.0 0.00 0.02 0.00 82 1020.4
20210118151032 36 277 0.0 0.0 0.00 0.02 0.00 83 1020.4
20210118150535 36 310 0.0 0.0 0.00 0.02 0.00 83 1020.3
20210118150047 36 268 0.0 0.0 0.00 0.02 0.00 83 1020.4
20210118145534 36 297 0.0 0.0 0.00 0.02 0.00 82 1020.4
20210118145029 36 253 0.0 0.0 0.00 0.02 0.00 81 1020.4
20210118144529 36 287 0.0 0.0 0.00 0.02 0.00 81 1020.3
20210118144036 36 329 0.0 0.0 0.00 0.02 0.00 81 1020.3
20210118143530 36 316 0.0 0.0 0.00 0.02 0.00 80 1020.4
20210118143034 36 308 0.0 0.0 0.00 0.02 0.00 80 1020.3
20210118142531 36 277 0.0 0.0 0.00 0.02 0.00 81 1020.3
20210118142029 36 310 0.0 0.0 0.00 0.02 0.00 82 1020.3
20210118141535 35 270 0.0 0.0 0.00 0.02 0.00 82 1020.2
20210118141031 35 299 0.0 0.0 0.00 0.02 0.00 82 1020.2
20210118140534 34 299 0.0 0.0 0.00 0.02 0.00 82 1020.3
20210118140044 35 16 0.0 0.0 0.00 0.02 0.00 80 1020.2
20210118135531 36 17 0.0 0.0 0.00 0.02 0.00 78 1020.1
20210118135035 37 6 0.0 0.0 0.00 0.02 0.00 79 1020.1
20210118134531 37 292 0.0 0.0 0.00 0.02 0.00 79 1020.2
20210118134036 37 339 0.0 0.0 0.00 0.02 0.00 79 1020.2
20210118133532 37 293 0.0 0.0 0.00 0.02 0.00 80 1020.1
20210118133034 37 287 0.0 0.0 0.00 0.02 0.00 80 1020.0
20210118132533 37 263 0.0 0.0 0.01 0.02 0.00 80 1020.0
20210118132034 36 316 0.0 0.0 0.00 0.01 0.00 80 1019.9
20210118131536 36 259 0.0 0.0 0.00 0.01 0.00 81 1020.0
20210118131030 36 277 0.0 0.0 0.00 0.01 0.00 80 1020.0
20210118130540 36 282 0.0 0.0 0.00 0.01 0.00 80 1019.9
20210118130040 36 287 0.0 0.0 0.01 0.01 0.00 80 1020.1
20210118125537 36 306 0.0 0.0 0.01 0.01 0.00 80 1020.0
20210118125032 37 314 0.0 0.0 0.01 0.01 0.00 80 1020.0
20210118124534 37 303 0.0 0.0 0.01 0.01 0.00 80 1020.0
20210118124031 36 298 0.0 0.0 0.01 0.01 0.00 81 1020.1
20210118123529 36 262 0.0 0.0 0.01 0.01 0.00 82 1020.1
20210118123031 36 287 0.0 0.0 0.01 0.01 0.00 82 1020.2
20210118122535 36 249 0.0 0.0 0.00 0.00 0.00 82 1020.2
20210118122034 36 305 0.0 0.0 0.00 0.00 0.00 83 1020.2
20210118121532 36 282 0.0 0.0 0.00 0.00 0.00 83 1020.2
20210118121038 35 287 0.0 0.0 0.00 0.00 0.00 84 1020.2
20210118120539 35 310 0.0 0.0 0.00 0.00 0.00 84 1020.2
20210118120119 35 314 0.0 0.0 0.00 0.00 0.00 84 1020.1
20210118115533 34 294 0.0 0.0 0.00 0.00 0.00 85 1020.1
20210118115045 34 282 0.0 0.0 0.00 0.00 0.00 85 1020.1
20210118114531 34 312 0.0 0.0 0.00 0.00 0.00 85 1020.2
20210118114031 34 324 0.0 0.0 0.00 0.00 0.00 86 1020.2
20210118113529 34 326 0.0 0.0 0.00 0.00 0.00 86 1020.3
20210118113041 33 223 0.0 0.0 0.00 0.00 0.00 86 1020.3
20210118112532 33 277 0.0 0.0 0.00 0.00 0.00 87 1020.5
20210118112039 33 317 0.0 0.0 0.00 0.00 0.00 87 1020.5
20210118111533 33 239 0.0 0.0 0.00 0.00 0.00 87 1020.5
20210118111029 32 316 0.0 0.0 0.00 0.00 0.00 88 1020.6
20210118110531 32 237 0.0 0.0 0.00 0.00 0.00 88 1020.6
20210118110049 32 251 0.0 0.0 0.00 0.00 0.00 89 1020.6
20210118105529 32 265 0.0 0.0 0.00 0.00 0.00 89 1020.7
20210118105029 32 258 0.0 0.0 0.00 0.00 0.00 90 1020.7
20210118104531 31 248 0.0 0.0 0.00 0.00 0.00 90 1020.7
20210118104033 31 272 0.0 0.0 0.00 0.00 0.00 91 1020.6
20210118103536 31 253 0.0 0.0 0.00 0.00 0.00 92 1020.6
20210118103037 30 244 0.0 0.0 0.00 0.00 0.00 92 1020.5
20210118102531 30 235 0.0 0.0 0.00 0.00 0.00 93 1020.6
20210118102032 30 235 0.0 0.0 0.00 0.00 0.00 93 1020.6
20210118101536 29 218 0.0 0.0 0.00 0.00 0.00 93 1020.5
20210118101029 29 253 0.0 0.0 0.00 0.00 0.00 93 1020.6
20210118100534 29 261 0.0 0.0 0.00 0.00 0.00 94 1020.6
20210118100032 28 225 0.0 0.0 0.00 0.00 0.00 93 1020.6
20210118095530 28 225 0.0 0.0 0.00 0.00 0.00 94 1020.6
20210118095031 27 224 0.0 0.0 0.00 0.00 0.00 93 1020.7
20210118094535 27 224 0.0 0.0 0.00 0.00 0.00 93 1020.8
20210118094030 27 224 0.0 0.0 0.00 0.00 0.00 93 1020.8
20210118093535 27 225 0.0 0.0 0.00 0.00 0.00 94 1020.8
20210118093030 27 224 0.0 0.0 0.00 0.00 0.00 94 1020.8
20210118092530 27 224 0.0 0.0 0.00 0.00 0.00 94 1020.8
20210118092037 27 225 0.0 0.0 0.00 0.00 0.00 94 1020.7
20210118091533 27 224 0.0 0.0 0.00 0.00 0.00 94 1020.7
20210118091032 27 224 0.0 0.0 0.00 0.00 0.00 94 1020.7
20210118090533 26 224 0.0 0.0 0.00 0.00 0.00 94 1020.7
20210118090047 26 224 0.0 0.0 0.00 0.00 0.00 94 1020.7
20210118085533 26 224 0.0 0.0 0.00 0.00 0.00 94 1020.7
20210118085036 26 225 0.0 0.0 0.00 0.00 0.00 94 1020.6
20210118084530 26 224 0.0 0.0 0.00 0.00 0.00 94 1020.6
20210118084037 26 224 0.0 0.0 0.00 0.00 0.00 94 1020.6
20210118083605 26 224 0.0 0.0 0.00 0.00 0.00 94 1020.6
20210118083032 26 224 0.0 0.0 0.00 0.00 0.00 94 1020.6
20210118082536 26 224 0.0 0.0 0.00 0.00 0.00 93 1020.6
20210118082029 26 224 0.0 0.0 0.00 0.00 0.00 93 1020.6
20210118081536 26 224 0.0 0.0 0.00 0.00 0.00 93 1020.5
20210118081031 26 224 0.0 0.0 0.00 0.00 0.00 93 1020.5
20210118080529 25 225 0.0 0.0 0.00 0.00 0.00 93 1020.5
20210118080054 25 225 0.0 0.0 0.00 0.00 0.00 93 1020.5
20210118075533 25 224 0.0 0.0 0.00 0.00 0.00 93 1020.4
20210118075034 25 224 0.0 0.0 0.00 0.00 0.00 93 1020.4
20210118074535 25 224 0.0 0.0 0.00 0.00 0.00 93 1020.4
20210118074038 25 224 0.0 0.0 0.00 0.00 0.00 93 1020.4
20210118073532 25 224 0.0 0.0 0.00 0.00 0.00 93 1020.4
20210118073031 25 224 0.0 0.0 0.00 0.00 0.00 93 1020.4
20210118072534 25 225 0.0 0.0 0.00 0.00 0.00 93 1020.3
20210118072029 25 224 0.0 0.0 0.00 0.00 0.00 92 1020.3
20210118071531 25 224 0.0 0.0 0.00 0.00 0.00 92 1020.3
20210118071029 25 224 0.0 0.0 0.00 0.00 0.00 92 1020.3
20210118070531 25 225 0.0 0.0 0.00 0.00 0.00 92 1020.2
20210118070038 25 224 0.0 0.0 0.00 0.00 0.00 92 1020.3
20210118065531 25 225 0.0 0.0 0.00 0.00 0.00 92 1020.2
20210118065032 25 224 0.0 0.0 0.00 0.00 0.00 92 1020.2
20210118064530 25 224 0.0 0.0 0.00 0.00 0.00 91 1020.2
20210118064043 25 225 0.0 0.0 0.00 0.00 0.00 91 1020.2
20210118063529 25 224 0.0 0.0 0.00 0.00 0.00 91 1020.1
20210118063034 24 224 0.0 0.0 0.00 0.00 0.00 91 1020.1
20210118062535 24 224 0.0 0.0 0.00 0.00 0.00 91 1020.2
20210118062031 24 224 0.0 0.0 0.00 0.00 0.00 91 1020.2
20210118061532 24 224 0.0 0.0 0.00 0.00 0.00 90 1020.1
20210118061031 24 224 0.0 0.0 0.00 0.00 0.00 90 1020.1
20210118060534 24 224 0.0 0.0 0.00 0.00 0.00 90 1020.1
20210118060049 24 224 0.0 0.0 0.00 0.00 0.00 89 1020.1
20210118055529 24 224 0.0 0.0 0.00 0.00 0.00 88 1020.0
20210118055032 24 224 0.0 0.0 0.00 0.00 0.00 88 1020.0
20210118054539 25 224 0.0 0.0 0.00 0.00 0.00 87 1020.0
20210118054030 25 224 0.0 0.0 0.00 0.00 0.00 87 1019.9
20210118053536 25 225 0.0 0.0 0.00 0.00 0.00 87 1019.9
20210118053029 25 224 0.0 0.0 0.00 0.00 0.00 86 1019.9
20210118052532 25 224 0.0 0.0 0.00 0.00 0.00 85 1019.9
20210118052033 25 225 0.0 0.0 0.00 0.00 0.00 85 1019.9
20210118051529 25 225 0.0 0.0 0.00 0.00 0.00 85 1019.9
20210118051032 25 224 0.0 0.0 0.00 0.00 0.00 85 1019.9
20210118050533 25 224 0.0 0.0 0.00 0.00 0.00 84 1019.9
20210118050035 25 224 0.0 0.0 0.00 0.00 0.00 84 1019.9
20210118045532 24 225 0.0 0.0 0.00 0.00 0.00 84 1019.8
20210118045044 24 225 0.0 0.0 0.00 0.00 0.00 84 1019.9
20210118044532 24 241 0.0 0.0 0.00 0.00 0.00 84 1019.8
20210118044033 24 221 0.0 0.0 0.00 0.00 0.00 84 1019.8
20210118043533 24 221 0.0 0.0 0.00 0.00 0.00 84 1019.9
20210118043040 24 221 0.0 0.0 0.00 0.00 0.00 84 1019.9
20210118042529 24 222 0.0 0.0 0.00 0.00 0.00 84 1020.0
20210118042033 24 216 0.0 0.0 0.00 0.00 0.00 84 1020.0
20210118041551 24 216 0.0 0.0 0.00 0.00 0.00 84 1020.0
20210118041032 24 215 0.0 0.0 0.00 0.00 0.00 84 1020.0
20210118040541 24 215 0.0 0.0 0.00 0.00 0.00 84 1020.0
20210118040040 24 215 0.0 0.0 0.00 0.00 0.00 84 1020.0
20210118035546 24 215 0.0 0.0 0.00 0.00 0.00 84 1020.0
20210118035039 24 224 0.0 0.0 0.00 0.00 0.00 83 1020.0
20210118034531 24 224 0.0 0.0 0.00 0.00 0.00 83 1020.1
20210118034036 24 239 0.0 0.0 0.00 0.00 0.00 83 1020.0
20210118033539 24 239 0.0 0.0 0.00 0.00 0.00 83 1020.1
20210118033030 24 239 0.0 0.0 0.00 0.00 0.00 83 1020.0
20210118032540 24 239 0.0 0.0 0.00 0.00 0.00 83 1020.0
20210118032035 24 239 0.0 0.0 0.00 0.00 0.00 83 1020.1
20210118031532 24 239 0.0 0.0 0.00 0.00 0.00 82 1020.2
20210118031036 24 247 0.0 0.0 0.00 0.00 0.00 82 1020.2
20210118030534 24 248 0.0 0.0 0.00 0.00 0.00 82 1020.1
20210118030040 24 248 0.0 0.0 0.00 0.00 0.00 82 1020.2
20210118025535 24 248 0.0 0.0 0.00 0.00 0.00 82 1020.2
20210118025038 24 248 0.0 0.0 0.00 0.00 0.00 81 1020.3
20210118024533 24 248 0.0 0.0 0.00 0.00 0.00 81 1020.3
20210118024029 24 248 0.0 0.0 0.00 0.00 0.00 81 1020.2
20210118023533 24 248 0.0 0.0 0.00 0.00 0.00 80 1020.3
20210118023032 25 248 0.0 0.0 0.00 0.00 0.00 80 1020.4
20210118022532 25 244 0.0 0.0 0.00 0.00 0.00 80 1020.5
20210118022041 24 244 0.0 0.0 0.00 0.00 0.00 80 1020.5
20210118021539 24 258 0.0 0.0 0.00 0.00 0.00 80 1020.4
20210118021040 24 260 0.0 0.0 0.00 0.00 0.00 80 1020.5
20210118020539 24 245 0.0 0.0 0.00 0.00 0.00 80 1020.6
20210118020040 24 266 0.0 0.0 0.00 0.00 0.00 80 1020.6
20210118015535 24 265 0.0 0.0 0.00 0.00 0.00 80 1020.6